Flag for Germany Weather past 2 weeks in Leipzig, Saxony, Germany

Now
55 °F

Clear.


Feels Like: 55 °F
Forecast: 47 / 65 °F
Wind: 3 mph from South

Location: Leipzig-Schkeuditz

Current Time: May 22, 2015 at 11:31:36 PM

Latest Report: May 22, 2015 at 10:50 PM


Visibility: 10 mi

Pressure: 30.18 "Hg

Humidity: 59%

Dew point: 41 °F

Location of LeipzigLocation

Historic Weather in Leipzig — Graph

°F

Leipzig temperature yesterday

Maximum temperature yesterday: 61 °F (at 12:50 PM)
Minimum temperature yesterday: 45 °F (at 5:20 AM)
Average temperature yesterday: 53 °F

Past Weeks' High & Low Weather Summary

 TemperatureHumidityPressure
High82 °F (May 12, 3:20 PM)100% (May 15, 5:50 AM)30.36 "Hg (May 15, 5:50 AM)
Low39 °F (May 15, 4:50 AM)25% (May 12, 3:50 PM)29.62 "Hg (May 19, 1:50 AM)
Average56 °F63%30.05 "Hg
* Reported May 7 10:20 PM — May 22 10:20 PM, Leipzig, Weather by CustomWeather, © 2015

Note: Actual official high and low records may vary slightly from our data, if they occured in-between our weather recording intervals... More about our weather records

Advertising

Leipzig weather history for previous 24 hours

 ConditionsComfort  
Time TempWeatherWind HumidityBarometerVisibility
10:20 PM
Fri, May 22
57 °FClear.2 mph55%30.18 "Hg10 mi
9:50 PM57 °FSunny.2 mph55%30.18 "Hg10 mi
9:20 PM59 °FSunny.2 mph51%30.18 "Hg10 mi
8:50 PM63 °FSunny.3 mph42%30.18 "Hg10 mi
8:20 PM63 °FSunny.3 mph45%30.18 "Hg10 mi
7:50 PM64 °FSunny.3 mph37%30.18 "Hg10 mi
7:20 PM64 °FSunny.3 mph37%30.18 "Hg10 mi
6:50 PM64 °FSunny.2 mph37%30.18 "Hg10 mi
6:20 PM66 °FSunny.3 mph35%30.18 "Hg10 mi
5:50 PM66 °FSunny.3 mph35%30.21 "Hg10 mi
5:20 PM66 °FSunny.3 mph37%30.21 "Hg10 mi
4:50 PM64 °FSunny.2 mph37%30.21 "Hg10 mi
4:20 PM64 °FSunny.5 mph37%30.24 "Hg10 mi
3:50 PM64 °FSunny.3 mph37%30.24 "Hg10 mi
3:20 PM64 °FSunny.5 mph37%30.24 "Hg10 mi
2:50 PM66 °FSunny.2 mph35%30.24 "Hg10 mi
2:20 PM66 °FSunny.2 mph35%30.27 "Hg10 mi
1:50 PM66 °FSunny.3 mph32%30.27 "Hg10 mi
1:20 PM64 °FPassing clouds.5 mph37%30.27 "HgN/A
12:50 PM63 °FSunny.3 mph39%30.30 "Hg10 mi
12:20 PM63 °FSunny.6 mph37%30.30 "Hg10 mi
11:50 AM63 °FSunny.2 mph39%30.30 "Hg10 mi
11:20 AM61 °FPassing clouds.5 mph39%30.30 "HgN/A
10:50 AM59 °FSunny.6 mph42%30.33 "Hg10 mi
10:20 AM59 °FSunny.6 mph48%30.33 "Hg10 mi
9:50 AM57 °FSunny.6 mph55%30.33 "Hg10 mi
9:20 AM55 °FSunny.6 mph63%30.33 "Hg10 mi
8:50 AM54 °FSunny.6 mph67%30.33 "Hg10 mi
8:20 AM52 °FSunny.5 mph72%30.33 "Hg10 mi
7:50 AM50 °FSunny.6 mph71%30.33 "Hg10 mi
7:20 AM46 °FSunny.5 mph82%30.33 "Hg10 mi
6:50 AM45 °FSunny.6 mph87%30.33 "Hg10 mi
6:20 AM45 °FSunny.7 mph87%30.30 "Hg10 mi
5:50 AM43 °FClear.7 mph87%30.30 "Hg10 mi
5:20 AM41 °FClear.6 mph87%30.30 "Hg10 mi
4:50 AM43 °FClear.6 mph87%30.33 "Hg10 mi
4:20 AM43 °FClear.6 mph87%30.30 "Hg10 mi
3:50 AM41 °FClear.7 mph87%30.30 "Hg10 mi
3:20 AM41 °FClear.5 mph87%30.30 "Hg10 mi
2:50 AM43 °FClear.5 mph87%30.30 "Hg10 mi
2:20 AM43 °FClear.5 mph87%30.30 "Hg10 mi
1:50 AM45 °FClear.5 mph76%30.30 "Hg10 mi
1:20 AM45 °FClear.6 mph81%30.30 "Hg10 mi
12:50 AM45 °FClear.5 mph81%30.30 "Hg10 mi
12:20 AM45 °FClear.5 mph81%30.30 "Hg10 mi
11:20 PM
Thu, May 21
46 °FClear.5 mph76%30.30 "Hg10 mi
Weather by CustomWeather, © 2015

See weather overviewHow to use our weather pages